Location: Laupheim
(48.2265°N, 9.8829°E)
Time: 00:14:37
(UTC+01:00)

ISS - Visible Passes

Search period start: 26 February 2018 00:00
Search period end: 08 March 2018 00:00
Orbit: 403 x 406 km, 51.6° (Epoch: 26 February)

Date Brightness Start Highest point End Pass type
(mag) Time Alt. Az. Time Alt. Az. Time Alt. Az.
26 Feb -1.0 06:24:33 10° S 06:26:46 17° SE 06:29:00 10° E visible
27 Feb -0.5 05:34:40 10° SE 05:34:48 10° SE 05:34:56 10° SE visible
28 Feb -2.2 06:15:32 10° SSW 06:18:30 33° SE 06:21:30 10° E visible
01 Mar -1.5 05:24:08 11° S 05:26:25 20° SE 05:28:55 10° E visible
02 Mar -1.0 04:34:18 12° SE 04:34:22 12° SE 04:35:48 10° ESE visible
02 Mar -3.5 06:07:04 10° SW 06:10:19 63° SSE 06:13:34 10° ENE visible
03 Mar -2.7 05:17:00 28° SSW 05:18:07 39° SSE 05:21:12 10° ENE visible
04 Mar -1.5 04:26:55 21° ESE 04:26:55 21° ESE 04:28:40 10° E visible
04 Mar -3.8 05:59:34 15° WSW 06:02:11 77° NNW 06:05:28 10° ENE visible
05 Mar -3.8 05:09:24 59° SW 05:09:52 74° SSE 05:13:09 10° ENE visible
06 Mar -1.6 04:19:09 25° E 04:19:09 25° E 04:20:46 10° ENE visible
06 Mar -3.4 05:51:47 17° W 05:54:05 53° NNW 05:57:19 10° ENE visible
07 Mar -3.9 05:01:29 66° NW 05:01:41 69° NNW 05:04:57 10° ENE visible
